Regional Weather Roundup
Issued by NWS

Home | Current Version | Previous Version | Graphics & Text | Print | Product List | Glossary On
Versions: 1 2 3 4 5 6 7 8 9 10 11 12 13 14 15 16 17 18 19 20 21 22 23 24 25 26 27 28 29 30 31 32 33 34 35 36 37 38 39 40 41 42 43 44 45 46 47 48 49 50
000
ASUS43 KFSD 201110
RWRSD

WEATHER ROUNDUP FOR SOUTH DAKOTA
NATIONAL WEATHER SERVICE SIOUX FALLS SD
600 AM CDT FRI OCT 20 2017

NOTE: "FAIR" INDICATES FEW OR NO CLOUDS BELOW 12,000 FEET WITH NO
SIGNIFICANT WEATHER AND/OR OBSTRUCTIONS TO VISIBILITY.


SDZ001>005-009-010-012>017-201200-
NORTHWEST AND NORTH CENTRAL SOUTH DAKOTA

CITY           SKY/WX    TMP DP  RH WIND       PRES   REMARKS
BUFFALO          N/A     55  26  32 W6        29.45F
MOBRIDGE       CLEAR     57  49  74 SE13      29.53F
$$

SDZ012>016-024>037-041>051-057-063-072>074-201200-
SOUTHWEST AND SOUTH CENTRAL SOUTH DAKOTA

CITY           SKY/WX    TMP DP  RH WIND       PRES   REMARKS
RAPID CTY ARPT PTCLDY    47  29  49 CALM      29.59F
PIERRE         CLEAR     55  47  74 SE13      29.60F
CUSTER         CLEAR     55  24  30 SW7       29.73F
ELLSWORTH AFB  PTCLDY    54  27  35 S10       29.58F
PHILIP         CLEAR     58  45  62 S3        29.58F
PINE RIDGE     CLEAR     56  45  66 S8        29.66F
SPEARFISH      FAIR      70  30  23 SW24G33   29.57F
WINNER         FAIR      62  45  53 S20G30    29.67F
$$

SDZ004>011-016>023-039-040-201200-
NORTHEAST SOUTH DAKOTA

CITY           SKY/WX    TMP DP  RH WIND       PRES   REMARKS
ABERDEEN       PTCLDY    56  49  77 S17G26    29.64F
WATERTOWN      FAIR      52  49  89 S12       29.74F
BROOKINGS      FAIR      54  48  80 S15       29.79F
SISSETON         N/A     65  47  52 S10       29.67S
$$

SDZ017-020-022-023-036>040-048>070-201200-
SOUTHEAST SOUTH DAKOTA

CITY           SKY/WX    TMP DP  RH WIND       PRES   REMARKS
SIOUX FALLS    FAIR      58  49  72 S15       29.82F
HURON          CLEAR     56  47  71 S14       29.70F
CHAMBERLAIN    CLEAR     57  46  66 S7        29.69S
MITCHELL       CLEAR     57  47  69 S17       29.74F
YANKTON        FAIR      59  48  67 S10       29.81F
$$

ABBREVIATIONS USED IN REMARKS
   TC - TEMPERATURE IN CELSIUS
  WCI - WIND CHILL INDEX
   HX - HEAT INDEX
  VSB - VISIBILITY




USA.gov is the U.S. government's official web portal to all federal, state and local government web resources and services.